Regional Weather Roundup
Issued by NWS

Home | Current Version | Previous Version | Text Only | Print | Product List | Glossary On
Versions: 1 2 3 4 5 6 7 8 9 10 11 12 13 14 15 16 17 18 19 20 21 22 23 24 25 26 27 28 29 30 31 32 33 34 35 36 37 38 39 40 41 42 43 44 45 46 47 48 49 50
000
ASUS43 KMKX 210500
RWRWI

WISCONSIN REGIONAL WEATHER ROUNDUP
NATIONAL WEATHER SERVICE MILWAUKEE/SULLIVAN WI
1200 AM CDT MON MAY 21 2018

NOTE: "FAIR" INDICATES FEW OR NO CLOUDS BELOW 12,000 FEET WITH NO
SIGNIFICANT WEATHER AND/OR OBSTRUCTIONS TO VISIBILITY.

WIZ001-002-006>008-014>016-023>028-210600-
NORTHWEST WISCONSIN

CITY           SKY/WX    TMP DP  RH WIND       PRES   REMARKS
SUPERIOR ARPT  FAIR      37  36  95 CALM      30.18S
ASHLAND        FAIR      41  35  79 W5        30.19R
HAYWARD        FAIR      41  35  79 CALM      30.18S
SIREN          FAIR      44  35  70 CALM      30.16F
CUMBERLAND     FAIR      46  34  61 CALM      30.17R
RICE LAKE      FAIR      47  40  76 CALM      30.18S
CHETEK         FAIR      44  38  77 CALM      30.17S
LADYSMITH      FAIR      43  37  77 CALM      30.20R
EAU CLAIRE     NOT AVBL
MENOMONIE      FAIR      53  41  63 E3        30.17S
NEW RICHMOND   FAIR      49  36  62 SE3       30.16R
OSCEOLA        FAIR      46  35  67 CALM      30.18S
$$

WIZ003>005-009-010-017-018-210600-
NORTH CENTRAL WISCONSIN

CITY           SKY/WX    TMP DP  RH WIND       PRES   REMARKS
MANITOWISH WTR FAIR      40  38  94 CALM      30.20S
ARBOR VITAE    FAIR      50  38  63 CALM      30.20R
WOODRUFF       FAIR      50  38  63 CALM      30.20R
RHINELANDER    FAIR      49  35  58 CALM      30.22R
EAGLE RIVER    FAIR      43  33  67 CALM      30.22R
LAND O LAKES   FAIR      40  38  93 CALM      30.23R
PHILLIPS       FAIR      40  36  84 CALM      30.19S
TOMAHAWK       FAIR      45  34  66 CALM      30.21S
MEDFORD        FAIR      47  33  59 SE5       30.20R
MERRILL        FAIR      42  36  79 CALM      30.22R
$$

WIZ029-030-035-036-043>047-210600-
CENTRAL WISCONSIN

CITY           SKY/WX    TMP DP  RH WIND       PRES   REMARKS
WAUSAU         FAIR      50  36  58 E5        30.20R
MOSINEE        FAIR      46  34  61 E3        30.23R
MARSHFIELD     FAIR      51  36  56 CALM      30.19S
STEVENS POINT  NOT AVBL
WAUPACA        FAIR      46  36  68 CALM      30.22R
WAUTOMA        FAIR      44  41  89 CALM      30.21F
WISC RAPIDS    FAIR      50  33  52 E5        30.22R
CAMP DOUGLAS   NOT AVBL
$$

WIZ011>013-019>022-031-037>040-048>050-210600-
NORTHEAST WISCONSIN

CITY           SKY/WX    TMP DP  RH WIND       PRES   REMARKS
ANTIGO         FAIR      43  32  63 CALM      30.22S
SHAWANO        FAIR      44  38  77 CALM      30.22R
OCONTO         FAIR      38  36  92 CALM      30.21S
STURGEON BAY   FAIR      43  31  62 CALM      30.23R
GREEN BAY      FAIR      44  38  79 N3        30.22R
MANITOWOC      NOT AVBL
APPLETON       FAIR      45  28  53 SE6       30.20S
CLINTONVILLE   FAIR      45  35  67 CALM      30.22S
OSHKOSH        FAIR      49  34  56 S3        30.21S
$$

WIZ032>034-041-042-053>061-210600-
SOUTHWEST WISCONSIN

CITY           SKY/WX    TMP DP  RH WIND       PRES   REMARKS
LA CROSSE      CLOUDY    57  51  80 SE6       30.16F
SPARTA         FAIR      46  46  99 CALM      30.19S
VIROQUA        MOCLDY    53  50  90 E7        30.17S
BOSCOBEL       MOCLDY    55  52  89 CALM      30.17F
PRAIRIE DU CHI CLOUDY    57  51  80 E5        30.16S
PLATTEVILLE    CLOUDY    55  54  94 E9        30.17S
$$

WIZ056-057-062-063-064-067-068-210600-
SOUTH CENTRAL WISCONSIN

CITY           SKY/WX    TMP DP  RH WIND       PRES   REMARKS
REEDSBURG      FAIR      52  48  84 CALM      30.18S
BARABOO/DELLS  FAIR      53  47  81 E6        30.19S
LONE ROCK      NOT AVBL
MINERAL POINT  FAIR      54  54 100 E6        30.18S
MADISON        FAIR      50  45  83 CALM      30.18F
MIDDLETON      FAIR      54  47  75 E7        30.20S
WATERTOWN      FAIR      46  46  99 E3        30.19F
MONROE         FAIR      50  43  76 E9        30.18S
JANESVILLE     FAIR      50  43  76 E6        30.19F
$$

WIZ051-052-058>065-066-070>072-210600-
SOUTHEAST WISCONSIN

CITY           SKY/WX    TMP DP  RH WIND       PRES   REMARKS
MILWAUKEE      MOCLDY    46  39  76 CALM      30.21F
WAUKESHA       FAIR      43  36  75 CALM      30.21F
MILWAUKEE/TIMM FAIR      43  34  70 CALM      30.22F
RACINE         FAIR      44  40  85 CALM      30.23R
BURLINGTON     FAIR      45  41  84 E3        30.21S
KENOSHA        FAIR      44  40  85 CALM      30.21S
FOND DU LAC    FAIR      44  39  82 CALM      30.21S
SHEBOYGAN      FAIR      41  38  89 NW3       30.22R
WEST BEND      FAIR      43  39  87 CALM      30.22S
JUNEAU         FAIR      49  30  48 CALM      30.22S
$$

LSZ147-162-210600-
LAKE SUPERIOR

STATION/POSITION TIME  TEMP    WIND        PRES    WAVE
                       AIR SEA DIR/SP/G            HT/PER
                 (UTC) (F)     (DEG/KT/KT) (MB)    (FT/S)
W MID LAKE BUOY  0350   41 36  340/  2/  2 1022.3F   0
DEVILS ISLAND    0400   53     200/  1/  1 1022.2R
SAXON HARBOR     0440   44     180/  1/  3 1021.3S
$$

LMZ867-665-643>646-210600-
LAKE MICHIGAN

STATION/POSITION TIME  TEMP    WIND        PRES    WAVE
                       AIR SEA DIR/SP/G            HT/PER
                 (UTC) (F)     (DEG/KT/KT) (MB)    (FT/S)
NORTHPORT PIER   0440   43                 1023.4R
KEWAUNEE LAKESHO 0430   47     270/  4/  4 1022.7R
SHEBOYGAN LAKESH 0400   48     340/  4/  5 1023.5R
PORT WASHINGTON  0440   46     290/  3/  4 1024.0S
MILWAUKEE LAKESH 0430   46     320/  4/  4   N/A
KENOSHA   LAKESH 0400   46                 1023.4
$$

TC  - TEMPERATURE IN CELSIUS
VSB - VISIBILITY IN STATUTE MILES
WCI - WIND CHILL INDEX
HX  - HEAT INDEX





USA.gov is the U.S. government's official web portal to all federal, state and local government web resources and services.